Tracking 28794 objects as of 19-Apr-2024
HD Live streaming from Space Station
objects crossing your sky now

TITAN 34B R/B

Track TITAN 34B R/B now!
10-day predictions


NORAD ID: 7688
Int'l Code: 1975-017B
Perigee: 268.1 km
Apogee: 17,623.5 km
Inclination: 63.3 °
Period: 314.4 minutes
Semi major axis: 15316 km
RCS: Unknown
Launch date: March 10, 1975
Source: United States (US)
Launch site: AIR FORCE WESTERN TEST RANGE (AFWTR)

Note: This is a ROCKET BODY
Your satellite tracking list
Your tracking list is empty




NASA's NSSDC Master Catalog

Two Line Element Set (TLE):
1 07688U 75017B   24109.34228589  .00015861  00000-0  17557-2 0  9994
2 07688  63.2561 191.2671 5665460 268.6244  29.5871  4.57984456 77665
Source of the keplerian elements: AFSPC